This demonstration page uses our WeatherBlox Daily Observations layout. Learn more.

Hourly Observations for August 11, 2018

Temp ( °F °C ) Dew Point ( °F °C ) Humidity (%) Winds ( mph kmh ) Pressure ( in mb ) Visibility ( mi km ) Precip ( " mm )
12:15 am 00:15 Clear 68 19.9 64 17.5 86 86 SSE 3 6 30.06 1018 10 16.09344 0 0
12:35 am 00:35 Clear 68 19.8 64 17.6 87 87 Calm 30.06 1018 10 16.09344 0 0
12:55 am 00:55 Clear 66 19.1 64 17.5 91 91 Calm 30.06 1018 10 16.09344 0 0
1:15 am 01:15 Clear 67 19.3 64 17.6 90 90 Calm 30.06 1018 10 16.09344 0 0
1:35 am 01:35 Clear 67 19.6 64 17.8 89 89 SSW 6 9 30.06 1018 10 16.09344 0 0
1:55 am 01:55 Clear 67 19.3 64 17.5 89 89 SW 3 6 30.06 1018 10 16.09344 0 0
2:15 am 02:15 Clear 66 18.9 63 17.3 90 90 SW 6 9 30.06 1018 10 16.09344 0 0
2:35 am 02:35 Clear 66 18.9 64 17.6 92 92 SW 5 7 30.06 1018 10 16.09344 0 0
2:55 am 02:55 Clear 65 18.5 63 17.1 92 92 SW 5 7 30.06 1018 10 16.09344 0 0
3:15 am 03:15 Clear 66 19 64 17.5 91 91 SSW 5 7 30.03 1017 10 16.09344 0 0
3:35 am 03:35 Clear 65 18.2 62 16.5 90 90 S 3 6 30.03 1017 10 16.09344 0 0
3:55 am 03:55 Clear 65 18.3 62 16.7 90 90 SW 3 6 30.03 1017 10 16.09344 0 0
4:15 am 04:15 Clear 65 18.1 62 16.7 92 92 SSW 3 6 30.03 1017 10 16.09344 0 0
4:35 am 04:35 Clear 64 17.7 62 16.8 95 95 SW 3 6 30.03 1017 7 11.265408 0 0
4:55 am 04:55 Clear 65 18.4 62 16.7 90 90 SW 5 7 30.03 1017 10 16.09344 0 0
5:15 am 05:15 Clear 64 17.5 62 16.4 93 93 WSW 5 7 30.03 1017 10 16.09344 0 0
5:35 am 05:35 Clear 63 17.1 62 16.5 96 96 WSW 5 7 30.03 1017 10 16.09344 0 0
5:55 am 05:55 Clear 65 18.2 62 16.6 90 90 W 5 7 30.03 1017 10 16.09344 0 0
6:15 am 06:15 Clear 65 18.2 62 16.5 90 90 W 6 9 30.03 1017 10 16.09344 0 0
6:35 am 06:35 Clear 64 17.5 61 16 91 91 W 5 7 30.03 1017 10 16.09344 0 0
6:55 am 06:55 Sunny 63 17 61 15.9 93 93 Calm 30.03 1017 10 16.09344 0 0
7:15 am 07:15 Sunny 61 16 60 15.6 97 97 ESE 7 11 30.09 1019 7 11.265408 0 0
7:35 am 07:35 Sunny 62 16.7 61 16.1 96 96 SE 3 6 30.09 1019 7 11.265408 0 0
7:55 am 07:55 Sunny 64 17.5 62 16.5 94 94 SSE 3 6 30.06 1018 7 11.265408 0 0
8:15 am 08:15 Sunny 65 18.3 62 16.9 92 92 S 3 6 30.06 1018 10 16.09344 0 0
8:35 am 08:35 Sunny 67 19.5 64 17.5 88 88 S 5 7 30.06 1018 10 16.09344 0 0
8:55 am 08:55 Sunny 69 20.5 64 17.6 84 84 SSW 7 11 30.06 1018 10 16.09344 0 0
9:15 am 09:15 Sunny 70 21 66 18.7 87 87 SSW 5 7 30.03 1017 10 16.09344 0 0
9:35 am 09:35 Sunny 72 22 66 18.7 82 82 Calm 30.03 1017 10 16.09344 0 0
9:55 am 09:55 Sunny 73 22.7 66 18.9 79 79 S 3 6 30.03 1017 10 16.09344 0 0
10:15 am 10:15 Sunny 73 23 68 19.9 83 83 S 5 7 30.03 1017 10 16.09344 0 0
10:35 am 10:35 Sunny 75 23.7 68 19.9 79 79 S 6 9 30.03 1017 10 16.09344 0 0
10:55 am 10:55 Sunny 76 24.6 68 20 76 76 S 6 9 30 1016 10 16.09344 0 0
11:15 am 11:15 Sunny 78 25.5 67 19.2 68 68 SSW 6 9 30 1016 10 16.09344 0 0
11:35 am 11:35 Sunny 79 26 66 19.1 66 66 SSW 5 7 30 1016 10 16.09344 0 0
11:55 am 11:55 Sunny 80 26.5 67 19.3 65 65 SW 5 7 30 1016 10 16.09344 0 0
12:15 pm 12:15 Sunny 80 26.8 67 19.4 64 64 S 5 7 30 1016 10 16.09344 0 0
12:35 pm 12:35 Sunny 81 27.3 67 19.3 62 62 S 6 9 30 1016 10 16.09344 0 0
12:55 pm 12:55 Sunny 82 27.6 68 20 63 63 S 7 11 30 1016 10 16.09344 0 0
1:15 pm 13:15 Sunny 82 27.9 68 20 62 62 S 5 7 30 1016 10 16.09344 0 0
1:35 pm 13:35 Sunny 83 28.2 67 19.2 58 58 Calm 29.97 1015 10 16.09344 0 0
1:55 pm 13:55 Sunny 83 28.5 66 18.8 56 56 S 6 9 29.97 1015 10 16.09344 0 0
2:15 pm 14:15 Sunny 84 28.8 67 19.3 56 56 SSW 3 6 29.97 1015 10 16.09344 0 0
2:35 pm 14:35 Sunny 85 29.4 67 19.5 55 55 SSW 7 11 29.97 1015 10 16.09344 0 0
2:55 pm 14:55 Sunny 85 29.5 67 19.2 54 54 SSW 5 7 29.97 1015 10 16.09344 0 0
3:15 pm 15:15 Sunny 85 29.6 66 19.1 53 53 SE 3 6 29.94 1014 10 16.09344 0 0
3:35 pm 15:35 Sunny 85 29.7 67 19.4 54 54 S 5 7 29.94 1014 10 16.09344 0 0
3:55 pm 15:55 Sunny 86 30.1 65 18.6 50 50 S 6 9 29.94 1014 10 16.09344 0 0
4:15 pm 16:15 Sunny 87 30.5 67 19.4 52 52 SSW 5 7 29.94 1014 10 16.09344 0 0
4:35 pm 16:35 Sunny 87 30.3 65 18.6 50 50 S 5 7 29.94 1014 10 16.09344 0 0
4:55 pm 16:55 Sunny 87 30.7 65 18.6 48 48 S 6 9 29.94 1014 10 16.09344 0 0
5:15 pm 17:15 Sunny 87 30.3 65 18.5 49 49 S 5 7 29.94 1014 10 16.09344 0 0
5:35 pm 17:35 Sunny 87 30.4 64 17.5 46 46 SSE 5 7 29.91 1013 10 16.09344 0 0
5:55 pm 17:55 Sunny 86 30.2 65 18.5 50 50 SSE 5 7 29.91 1013 10 16.09344 0 0
6:15 pm 18:15 Sunny 86 30.1 66 18.9 51 51 SSE 3 6 29.91 1013 10 16.09344 0 0
6:35 pm 18:35 Sunny 86 29.9 66 18.7 51 51 Calm 29.91 1013 10 16.09344 0 0
6:55 pm 18:55 Sunny 85 29.6 68 20 56 56 Calm 29.91 1013 10 16.09344 0 0
7:15 pm 19:15 Sunny 84 28.7 71 21.7 66 66 ESE 5 7 29.91 1013 10 16.09344 0 0
7:35 pm 19:35 Sunny 82 27.9 72 22.1 71 71 SE 5 7 29.91 1013 10 16.09344 0 0
7:55 pm 19:55 Sunny 81 27.4 72 22.1 73 73 SE 5 7 29.91 1013 10 16.09344 0 0
8:15 pm 20:15 Sunny 80 26.4 72 22.4 79 79 SE 3 6 29.94 1014 10 16.09344 0 0
8:35 pm 20:35 Sunny 78 25.5 71 21.7 80 80 S 3 6 29.94 1014 10 16.09344 0 0
8:55 pm 20:55 Clear 77 25.1 70 21 78 78 S 5 7 29.94 1014 10 16.09344 0 0
9:15 pm 21:15 Clear 76 24.6 68 20.1 76 76 S 3 6 29.94 1014 10 16.09344 0 0
9:35 pm 21:35 Clear 75 24 69 20.3 80 80 Calm 29.97 1015 10 16.09344 0 0
9:55 pm 21:55 Clear 74 23.5 67 19.7 79 79 Calm 30 1016 10 16.09344 0 0
10:15 pm 22:15 Clear 74 23.4 66 19 76 76 SSW 6 9 30 1016 10 16.09344 0 0
10:35 pm 22:35 Clear 72 22.3 66 19 82 82 Calm 30 1016 10 16.09344 0 0
10:55 pm 22:55 Clear 73 22.7 66 18.7 78 78 SSW 5 7 30 1016 10 16.09344 0 0
11:15 pm 23:15 Clear 73 22.5 65 18.5 78 78 S 5 7 30 1016 10 16.09344 0 0
11:35 pm 23:35 Clear 72 22 65 18.3 80 80 SW 3 6 30 1016 10 16.09344 0 0
11:55 pm 23:55 Clear 71 21.4 65 18.2 82 82 SW 5 7 30 1016 10 16.09344 0 0

Powered by AerisWeather